Terminal Aerodrome Forecast
Issued by NWS Corpus Christi, TX

Home | Current Version | Previous Version | Text Only | Print | Product List | Glossary On
Versions: 1 2 3 4 5 6 7 8 9 10 11 12 13 14 15
961
FTUS44 KCRP 292333
TAFVCT
TAF
KVCT 292333Z 3000/3024 13011KT P6SM SCT025
      TEMPO 3001/3004 BKN025
     FM300700 11004KT 6SM BR SCT015 BKN150
      TEMPO 3007/3011 4SM BR BKN015
     FM301400 14008KT P6SM SCT025 BKN250
     FM301800 14012KT P6SM SCT040 BKN250=

USA.gov is the U.S. government's official web portal to all federal, state and local government web resources and services.